Home   Weather   Nagano   Past weeks

Flag for Japan Past Weather in Nagano, Japan — Yesterday and Last 2 Weeks

Now
31 °F

Chilly.


Feels Like: 26 °F
Forecast: 24 / 41 °F
Wind: 6 mph from Northeast

Location: Nagano

Current Time: Feb 27, 2017 at 6:34:27 am

Latest Report: Feb 27, 2017 at 5:00 am


Visibility: N/A

Pressure: 30.34 "Hg

Humidity: 73%

Dew Point: 24 °F

Location of NaganoLocation

Past Weather in Nagano — Graph

°F

Nagano Temperature Yesterday

Maximum temperature yesterday: 48 °F (at 1:00 pm)
Minimum temperature yesterday: 29 °F (at 6:00 am)
Average temperature yesterday: 36 °F

High & Low Weather Summary for the Past Weeks

 TemperatureHumidityPressure
High53 °F (Feb 23, 2:00 pm)99% (Feb 20, 6:00 pm)30.43 "Hg (Feb 20, 6:00 pm)
Low21 °F (Feb 22, 7:00 am)31% (Feb 16, 2:00 pm)29.47 "Hg (Feb 20, 2:00 pm)
Average33 °F76%30.10 "Hg
* Reported Feb 12 5:00 am — Feb 27 5:00 am, Nagano, Weather by CustomWeather, © 2017

Note: Actual official high and low records may vary slightly from our data, if they occured in-between our weather recording intervals... More about our weather records

Advertising

Nagano Weather History for the Previous 24 Hours

Scroll right to see more
 ConditionsComfort  
Time TempWeatherWind HumidityBarometerVisibility
5:00 am
Mon, Feb 27
31 °FChilly.6 mph73%30.34 "HgN/A
4:00 am30 °FChilly.8 mph79%30.32 "HgN/A
3:00 am31 °FOvercast.7 mph76%30.32 "Hg12 mi
2:00 am32 °FChilly.8 mph75%30.32 "HgN/A
1:00 am32 °FChilly.9 mph74%30.30 "HgN/A
12:00 am33 °FChilly.8 mph75%30.30 "HgN/A
11:00 pm
Sun, Feb 26
33 °FChilly.10 mph77%30.30 "HgN/A
10:00 pm35 °FChilly.8 mph74%30.27 "HgN/A
9:00 pm35 °FSnow flurries. Overcast.9 mph76%30.25 "Hg9 mi
8:00 pm35 °FChilly.9 mph79%30.24 "HgN/A
7:00 pm36 °FChilly.8 mph77%30.21 "HgN/A
6:00 pm36 °FChilly.10 mph77%30.17 "HgN/A
5:00 pm39 °FChilly.9 mph73%30.13 "HgN/A
4:00 pm43 °FQuite cool.10 mph62%30.09 "HgN/A
3:00 pm45 °FPartly sunny.9 mph54%30.07 "Hg22 mi
2:00 pm44 °FQuite cool.14 mph53%30.07 "HgN/A
1:00 pm48 °FCool.5 mph37%30.05 "HgN/A
12:00 pm44 °FQuite cool.7 mph44%30.08 "HgN/A
11:00 am42 °FQuite cool.7 mph51%30.11 "HgN/A
10:00 am38 °FChilly.2 mph66%30.14 "HgN/A
9:00 am34 °FScattered clouds.3 mph75%30.16 "Hg12 mi
8:00 am31 °FChilly.1 mph83%30.17 "HgN/A
7:00 am29 °FChilly.1 mph90%30.16 "HgN/A
6:00 am29 °FChilly.1 mph89%30.15 "HgN/A
Weather by CustomWeather, © 2017

See weather overviewHow to use our weather pages